734  
ASUS43 KIWX 212110  
RWRIWX  
 
KIWX WEATHER ROUNDUP  
NATIONAL WEATHER SERVICE NORTHERN INDIANA  
500 PM EDT SAT APR 21 2018  
 
NOTE: "FAIR" INDICATES FEW OR NO CLOUDS BELOW 12,000 FEET WITH NO  
SIGNIFICANT WEATHER AND/OR S TO VISIBILITY
.  
 
* THESE STATIONS ARE NOT UNDER NWS QUALITY CONTROL. THEY ALSO MAY NOT  
REPORT WEATHER SUCH AS PRECIPITATION OR FOG.
 
 
INZ001>027-212200-  
NORTHERN INDIANA  
 
CITY SKY/WX TMP DP RH WIND PRES REMARKS
 
GARY* CLOUDY 48 25 40 NE3 30.40F  
VALPARAISO CLOUDY 57 28 33 N9 30.39F  
MICHIGAN CITY* FAIR 50 27 40 N5 30.40F  
LAPORTE* PTSUNNY 53 28 37 SW7 30.40F  
KNOX* PTSUNNY 55 27 33 CALM 30.39F  
SOUTH BEND PTSUNNY 55 23 28 NW6 30.41F  
ELKHART* SUNNY 57 27 30 S5 30.39F  
GOSHEN PTSUNNY 55 26 32 S3 30.39F  
MONTICELLO* CLOUDY 58 24 27 E9 30.35F  
LOGANSPORT* CLOUDY 55 23 28 E9 30.37F  
ROCHESTER* FAIR 59 21 23 NE5 30.38F  
WARSAW* CLOUDY 54 28 37 CALM 30.39F  
AUBURN* CLOUDY 54 23 30 CALM 30.40F  
FORT WAYNE CLOUDY 54 25 32 E7 30.40S  
HUNTINGTON* PTSUNNY 54 22 28 NE7 30.39F  
PERU/GRISSOM CLOUDY 61 21 21 E10 30.37F  
MARION* CLOUDY 55 22 27 CALM 30.37F  
 

 
INZ028>050-212200-  
CENTRAL INDIANA  
 
CITY SKY/WX TMP DP RH WIND PRES REMARKS
 
LAFAYETTE PTSUNNY 58 29 33 NE14G21 30.33F  
KOKOMO* CLOUDY 57 23 26 E10 30.37F  
MUNCIE* CLOUDY 59 20 22 E9 30.36F  
INDIANAPOLIS PTSUNNY 60 21 22 NE9 30.32F  
 

 
MIZ043>046-050>051-056>058-064>065-071>073-077>080-212200-  
SOUTHWEST LOWER MICHIGAN  
 
CITY SKY/WX TMP DP RH WIND PRES REMARKS
 
BATTLE CREEK FAIR 57 27 31 S5 30.39F  
BENTON HARBOR FAIR 51 18 27 VRB7 30.41F  
COLDWATER* FAIR 56 24 28 CALM 30.38F  
HILLSDALE* FAIR 54 21 28 CALM 30.38F  
HOLLAND FAIR 54 25 32 NW7 30.41S  
GRAND RAPIDS CLOUDY 58 24 27 CALM 30.38F  
KALAMAZOO FAIR 58 23 26 W6 30.38F  
STURGIS* FAIR 58 26 30 W5 30.38S  
THREE RIVERS* FAIR 58 27 30 SE7 30.38F  
 

 
OHZ001>008-015>018-024>025-212200-  
NORTHWEST OHIO  
 
CITY SKY/WX TMP DP RH WIND PRES REMARKS
 
WAUSEON* FAIR 57 25 28 E8 30.40S  
FINDLAY FAIR 56 23 27 NE8 30.38F  
TOLEDO EXPRESS FAIR 56 28 34 VRB6 30.40F  
TOLEDO METCALF FAIR 52 17 25 E7 30.42F  
LIMA FAIR 54 25 32 NE7 30.38S  
 

 
AND FOR LAKE MICHIGAN COASTAL AND OPEN LAKE BUOY OBSERVATIONS  
 
STATION/POSITION TEMP WIND PRES VSBY WAVE
 
AIR SEA DIR/SP/G HT/PER  
(F) (DEG/KT/KT) (MB) (MI) (FT/S)  
CALUMET HARBOR 49 10/ 4/ 5 1029.0F  
MICHIGAN CITY 42 30/ 4/ 4 N/A  
BURNS HARBOR 44 350/ 3/ 3 1030.1F  
SAINT JOSEPH 46 10/ 5/ 8 1030.1  
 

 

 
 
 
CLICK HERE TO GO TO PREVIOUS BULLETINS.

The Nexlab IN Page
The Nexlab OH Page
The Nexlab MI Page Main Text Page